CW8398 Weather Reports


time (UTC)temp
C
wind
direction
speed
KPH
gust
KPH
rain 1hr
cm
rain 24hr
cm
rain mn
cm
humidity
%
barometer
mb
20260507132803 12 121 3.2 8.0 0.00 0.00 0.00 34 1014.8
20260507132307 12 202 4.8 12.9 0.00 0.00 0.00 32 1014.8
20260507131803 12 68 3.2 11.3 0.00 0.00 0.00 33 1014.8
20260507131303 12 3 4.8 12.9 0.00 0.00 0.00 34 1014.8
20260507130303 12 25 6.4 12.9 0.00 0.00 0.00 34 1014.8
20260507125803 12 51 3.2 11.3 0.00 0.00 0.00 32 1014.8
20260507125306 12 45 4.8 11.3 0.00 0.00 0.00 30 1014.8
20260507124803 12 354 3.2 4.8 0.00 0.00 0.00 30 1014.6
20260507124303 12 80 3.2 11.3 0.00 0.00 0.00 30 1014.6
20260507123803 12 24 3.2 9.7 0.00 0.00 0.00 28 1014.6
20260507123303 12 81 4.8 11.3 0.00 0.00 0.00 27 1014.6
20260507122803 12 55 3.2 14.5 0.00 0.00 0.00 28 1014.6
20260507122306 12 13 4.8 14.5 0.00 0.00 0.00 27 1014.6
20260507121803 12 85 3.2 4.8 0.00 0.00 0.00 27 1014.6
20260507121303 12 50 4.8 9.7 0.00 0.00 0.00 28 1014.6
20260507120803 11 358 6.4 16.1 0.00 0.00 0.00 27 1014.6
20260507120303 12 2 4.8 12.9 0.00 0.00 0.00 28 1014.6
20260507115803 12 29 4.8 12.9 0.00 0.00 0.00 25 1014.6
20260507115306 12 11 3.2 12.9 0.00 0.00 0.00 27 1014.6
20260507114803 12 350 4.8 9.7 0.00 0.00 0.00 27 1014.4
20260507114303 12 358 4.8 9.7 0.00 0.00 0.00 27 1014.4
20260507113803 12 342 6.4 16.1 0.00 0.00 0.00 27 1014.4
20260507112803 12 321 3.2 8.0 0.00 0.00 0.00 27 1014.4
20260507112306 12 15 3.2 8.0 0.00 0.00 0.00 30 1014.4
20260507111803 12 357 4.8 9.7 0.00 0.00 0.00 29 1014.4
20260507111303 12 20 3.2 9.7 0.00 0.00 0.00 29 1014.4
20260507110803 12 66 4.8 16.1 0.00 0.00 0.00 28 1014.4
20260507110303 12 5 3.2 4.8 0.00 0.00 0.00 27 1014.4
20260507105306 12 338 1.6 12.9 0.00 0.00 0.00 28 1014.0
20260507104303 11 39 6.4 14.5 0.00 0.00 0.00 25 1014.0
20260507103803 11 347 6.4 16.1 0.00 0.00 0.00 25 1014.0
20260507103303 12 293 3.2 9.7 0.00 0.00 0.00 26 1014.0
20260507102803 12 327 1.6 16.1 0.00 0.00 0.00 29 1014.0
20260507102306 11 26 1.6 8.0 0.00 0.00 0.00 29 1014.0
20260507101803 11 52 1.6 8.0 0.00 0.00 0.00 27 1014.0
20260507100803 11 15 4.8 9.7 0.00 0.00 0.00 33 1014.0
20260507100303 11 79 3.2 8.0 0.00 0.00 0.00 30 1014.0
20260507095803 11 14 4.8 8.0 0.00 0.00 0.00 30 1014.0
20260507095305 11 155 3.2 8.0 0.00 0.00 0.00 31 1014.0
20260507094804 11 9 8.0 19.3 0.00 0.00 0.00 33 1014.0
20260507094303 12 69 3.2 12.9 0.00 0.00 0.00 34 1014.0
20260507093804 11 85 1.6 4.8 0.00 0.00 0.00 34 1014.0
20260507093304 11 188 6.4 14.5 0.00 0.00 0.00 33 1014.0
20260507092803 11 47 4.8 14.5 0.00 0.00 0.00 34 1014.0
20260507092306 11 176 3.2 12.9 0.00 0.00 0.00 35 1013.8
20260507091803 11 15 6.4 12.9 0.00 0.00 0.00 35 1013.8
20260507090303 11 339 3.2 9.7 0.00 0.00 0.00 37 1013.8
20260507085306 10 39 3.2 8.0 0.00 0.00 0.00 38 1013.8
20260507084303 11 34 3.2 4.8 0.00 0.00 0.00 38 1013.8
20260507083803 10 15 1.6 12.9 0.00 0.00 0.00 38 1013.8
20260507083303 10 352 3.2 4.8 0.00 0.00 0.00 39 1013.8
20260507082803 10 108 3.2 8.0 0.00 0.00 0.00 40 1013.6
20260507082306 10 355 3.2 4.8 0.00 0.00 0.00 41 1013.6
20260507081803 10 9 3.2 9.7 0.00 0.00 0.00 40 1013.6
20260507081303 10 216 1.6 4.8 0.00 0.00 0.00 33 1013.6
20260507080303 10 182 4.8 11.3 0.00 0.00 0.00 34 1013.6
20260507075803 10 293 1.6 14.5 0.00 0.00 0.00 39 1013.6
20260507075306 9 176 0.0 14.5 0.00 0.00 0.00 39 1013.6
20260507074803 9 359 1.6 8.0 0.00 0.00 0.00 39 1013.6
20260507074303 9 59 3.2 8.0 0.00 0.00 0.00 39 1013.6
20260507073803 9 33 1.6 8.0 0.00 0.00 0.00 44 1013.6
20260507072803 8 21 1.6 4.8 0.00 0.00 0.00 48 1013.6
20260507072306 8 334 1.6 4.8 0.00 0.00 0.00 47 1013.6
20260507071803 8 62 3.2 4.8 0.00 0.00 0.00 50 1013.6
20260507071303 8 292 3.2 4.8 0.00 0.00 0.00 51 1013.6
20260507070803 8 56 1.6 4.8 0.00 0.00 0.00 50 1013.6
20260507070304 8 13 3.2 4.8 0.00 0.00 0.00 49 1013.6
20260507065803 8 32 3.2 9.7 0.00 0.00 0.00 47 1013.6
20260507064803 8 251 1.6 4.8 0.00 0.00 0.00 48 1013.5
20260507064303 8 39 1.6 4.8 0.00 0.00 0.00 50 1013.5
20260507063803 8 125 1.6 8.0 0.00 0.00 0.00 54 1013.5
20260507063303 7 41 1.6 4.8 0.00 0.00 0.00 55 1013.5
20260507062803 7 143 1.6 4.8 0.00 0.00 0.00 60 1013.5
20260507061804 7 309 1.6 4.8 0.00 0.00 0.00 66 1013.4
20260507061303 7 45 1.6 4.8 0.00 0.00 0.00 61 1013.4
20260507060804 7 161 0.0 3.2 0.00 0.00 0.00 60 1013.4
20260507060303 6 171 1.6 4.8 0.00 0.00 0.00 62 1013.3
20260507055804 6 209 1.6 3.2 0.00 0.00 0.00 64 1013.3
20260507055306 6 164 1.6 4.8 0.00 0.00 0.00 63 1013.3
20260507054803 6 181 0.0 4.8 0.00 0.00 0.00 71 1013.3
20260507054303 6 173 0.0 1.6 0.00 0.00 0.00 73 1013.3
20260507053804 5 173 1.6 3.2 0.00 0.00 0.00 73 1013.3
20260507053303 5 173 0.0 0.0 0.00 0.00 0.00 81 1013.3
20260507052803 5 173 0.0 0.0 0.00 0.00 0.00 83 1013.3
20260507052306 5 173 0.0 0.0 0.00 0.00 0.00 82 1013.3
20260507051804 5 173 0.0 0.0 0.00 0.00 0.00 85 1013.3
20260507051303 4 173 0.0 0.0 0.00 0.00 0.00 88 1013.3
20260507050304 3 173 0.0 0.0 0.00 0.00 0.00 94 1013.3
20260507045803 3 173 0.0 0.0 0.00 0.00 0.00 95 1013.3
20260507044803 3 173 0.0 0.0 0.00 0.00 0.00 96 1013.3
20260507044304 3 173 0.0 0.0 0.00 0.00 0.00 96 1013.1
20260507043803 3 173 0.0 0.0 0.00 0.00 0.00 96 1013.1
20260507043303 2 173 0.0 0.0 0.00 0.00 0.00 96 1013.1
20260507042803 2 173 0.0 0.0 0.00 0.00 0.00 96 1013.1
20260507042306 2 173 0.0 0.0 0.00 0.00 0.00 96 1013.1
20260507041803 2 173 0.0 0.0 0.00 0.00 0.00 96 1013.1
20260507041303 2 173 0.0 0.0 0.00 0.00 0.00 96 1013.1
20260507040804 1 173 0.0 0.0 0.00 0.00 0.00 96 1013.1
20260507040304 1 173 0.0 0.0 0.00 0.00 0.00 96 1013.1
20260507035804 1 173 0.0 0.0 0.00 0.00 0.00 96 1013.1
20260507034804 0 173 0.0 0.0 0.00 0.00 0.00 96 1013.1
20260507034304 0 173 0.0 0.0 0.00 0.00 0.00 95 1013.1
20260507033804 0 173 0.0 0.0 0.00 0.00 0.00 95 1013.1
20260507033303 0 173 0.0 0.0 0.00 0.00 0.00 95 1012.6
20260507032803 0 173 0.0 0.0 0.00 0.00 0.00 95 1012.6
20260507032305 0 173 0.0 0.0 0.00 0.00 0.00 95 1012.6
20260507031803 -1 173 0.0 0.0 0.00 0.00 0.00 95 1012.6
20260507031304 -1 173 0.0 0.0 0.00 0.00 0.00 95 1012.6
20260507030803 -1 173 0.0 0.0 0.00 0.00 0.00 95 1012.6
20260507025803 -1 173 0.0 0.0 0.00 0.00 0.00 94 1012.6
20260507025306 0 173 0.0 0.0 0.00 0.00 0.00 94 1012.6
20260507024803 0 173 0.0 0.0 0.00 0.00 0.00 95 1012.6
20260507024304 0 173 0.0 0.0 0.00 0.00 0.00 95 1012.6
20260507023804 0 173 0.0 0.0 0.00 0.00 0.00 94 1012.6
20260507023304 0 173 0.0 0.0 0.00 0.00 0.00 94 1012.6
20260507022803 0 173 0.0 0.0 0.00 0.00 0.00 94 1012.6
20260507022306 0 173 0.0 0.0 0.00 0.00 0.00 94 1012.6
20260507021804 0 173 0.0 0.0 0.00 0.00 0.00 94 1012.6
20260507020803 0 173 0.0 0.0 0.00 0.00 0.00 94 1012.6
20260507020303 0 173 0.0 0.0 0.00 0.00 0.00 94 1012.6
20260507015804 0 173 0.0 0.0 0.00 0.00 0.00 94 1012.6
20260507015306 0 173 0.0 0.0 0.00 0.00 0.00 95 1012.6
20260507014803 0 173 0.0 0.0 0.00 0.00 0.00 94 1012.6
20260507014303 0 173 0.0 0.0 0.00 0.00 0.00 94 1012.6
20260507013804 0 173 0.0 0.0 0.00 0.00 0.00 94 1012.6
20260507013304 0 173 0.0 0.0 0.00 0.00 0.00 94 1012.4
20260507012306 0 173 0.0 0.0 0.00 0.00 0.00 94 1012.4
20260507011803 0 173 0.0 0.0 0.00 0.00 0.00 94 1012.4
20260507010303 0 173 0.0 0.0 0.00 0.00 0.00 94 1012.2
20260507005804 0 173 0.0 0.0 0.00 0.00 0.00 94 1012.2
20260507005305 0 173 0.0 0.0 0.00 0.00 0.00 93 1012.2
20260507004803 0 173 0.0 0.0 0.00 0.00 0.00 94 1012.2
20260507004304 0 173 0.0 0.0 0.00 0.00 0.00 94 1012.2
20260507003804 0 173 0.0 0.0 0.00 0.00 0.00 94 1012.2
20260507003304 0 173 0.0 0.0 0.00 0.00 0.00 93 1012.2
20260507002803 0 173 0.0 0.0 0.00 0.00 0.00 93 1012.2
20260507002306 0 173 0.0 0.0 0.00 0.00 0.00 93 1012.2
20260507001804 0 173 0.0 0.0 0.00 0.00 0.00 93 1012.2
20260507001303 0 173 0.0 0.0 0.00 0.00 0.00 93 1012.2
20260507000804 0 173 0.0 0.0 0.00 0.00 0.00 93 1012.2
20260507000306 0 173 0.0 0.0 0.00 0.00 0.00 93 1012.2
20260506235803 0 173 0.0 0.0 0.00 0.00 0.00 93 1012.2
20260506235306 0 173 0.0 0.0 0.00 0.00 0.00 93 1012.2
20260506234803 0 173 0.0 0.0 0.00 0.00 0.00 92 1012.2
20260506234303 0 173 0.0 0.0 0.00 0.00 0.00 92 1012.2
20260506233804 0 173 0.0 0.0 0.00 0.00 0.00 92 1012.2
20260506233303 1 173 0.0 0.0 0.00 0.00 0.00 92 1012.2
20260506231804 1 173 0.0 0.0 0.00 0.00 0.00 92 1012.2
20260506230304 1 173 0.0 0.0 0.00 0.00 0.00 91 1011.9
20260506225305 1 173 0.0 0.0 0.00 0.00 0.00 91 1011.9
20260506224803 1 173 0.0 0.0 0.00 0.00 0.00 91 1011.9
20260506223803 1 173 0.0 0.0 0.00 0.00 0.00 91 1011.9
20260506223304 0 173 0.0 0.0 0.00 0.00 0.00 91 1011.9
20260506222804 0 173 0.0 0.0 0.00 0.00 0.00 91 1011.9
20260506222306 0 173 0.0 1.6 0.00 0.00 0.00 90 1011.9
20260506221804 0 173 1.6 3.2 0.00 0.00 0.00 89 1011.9
20260506221304 0 173 1.6 3.2 0.00 0.00 0.00 89 1011.9
20260506220817 0 173 1.6 3.2 0.00 0.00 0.00 88 1011.9
20260506215802 0 173 0.0 0.0 0.00 0.00 0.00 87 1011.9
20260506215302 0 173 0.0 0.0 0.00 0.00 0.00 87 1011.9
20260506213801 0 173 0.0 0.0 0.00 0.00 0.00 86 1011.9
20260506213302 0 173 0.0 0.0 0.00 0.00 0.00 85 1011.9
20260506212801 0 173 0.0 0.0 0.00 0.00 0.00 84 1011.9
20260506212305 0 173 0.0 0.0 0.00 0.00 0.00 85 1011.9
20260506211802 0 173 0.0 0.0 0.00 0.00 0.00 84 1011.9
20260506211302 0 173 0.0 0.0 0.00 0.00 0.00 83 1011.9
20260506210302 0 173 0.0 0.0 0.00 0.00 0.00 82 1011.9
20260506205802 0 173 0.0 0.0 0.00 0.00 0.00 81 1011.9
20260506205305 1 173 0.0 0.0 0.00 0.00 0.00 80 1011.9
20260506204802 1 173 0.0 0.0 0.00 0.00 0.00 80 1011.9
20260506204302 1 173 0.0 0.0 0.00 0.00 0.00 81 1011.9
20260506203802 1 173 0.0 0.0 0.00 0.00 0.00 81 1011.9
20260506203302 1 173 0.0 0.0 0.00 0.00 0.00 79 1012.0
20260506202802 1 173 0.0 0.0 0.00 0.00 0.00 78 1012.0
20260506201802 1 173 0.0 0.0 0.00 0.00 0.00 77 1012.0
20260506201301 1 173 0.0 0.0 0.00 0.00 0.00 78 1012.0
20260506200302 1 173 0.0 0.0 0.00 0.00 0.00 77 1012.0
20260506195802 1 173 0.0 1.6 0.00 0.00 0.00 76 1012.1
20260506195305 1 173 0.0 1.6 0.00 0.00 0.00 76 1012.1
20260506194802 1 173 0.0 1.6 0.00 0.00 0.00 75 1012.1
20260506193802 2 173 0.0 1.6 0.00 0.00 0.00 74 1012.1
20260506193302 2 173 0.0 1.6 0.00 0.00 0.00 74 1012.1
20260506192802 2 173 0.0 1.6 0.00 0.00 0.00 73 1012.1
20260506192305 2 173 0.0 0.0 0.00 0.00 0.00 72 1012.1
20260506191802 2 173 0.0 3.2 0.00 0.00 0.00 72 1012.1
20260506190802 2 173 0.0 1.6 0.00 0.00 0.00 70 1012.1
20260506190302 3 173 0.0 1.6 0.00 0.00 0.00 69 1012.1
20260506185802 3 173 0.0 0.0 0.00 0.00 0.00 67 1012.1
20260506185306 3 173 0.0 1.6 0.00 0.00 0.00 65 1012.1
20260506184802 3 173 0.0 0.0 0.00 0.00 0.00 64 1012.1
20260506183802 4 173 0.0 0.0 0.00 0.00 0.00 62 1012.1
20260506183302 5 173 0.0 0.0 0.00 0.00 0.00 61 1011.9
20260506182802 5 173 0.0 1.6 0.00 0.00 0.00 59 1011.9
20260506182306 5 173 0.0 1.6 0.00 0.00 0.00 58 1011.9
20260506180802 6 157 1.6 4.8 0.00 0.00 0.00 54 1011.9
20260506180302 6 153 1.6 8.0 0.00 0.00 0.00 54 1011.9
20260506175802 6 165 1.6 8.0 0.00 0.00 0.00 53 1011.9
20260506175306 6 171 3.2 4.8 0.00 0.00 0.00 53 1011.8
20260506174802 6 186 3.2 8.0 0.00 0.00 0.00 52 1011.8
20260506174302 7 167 3.2 8.0 0.00 0.00 0.00 52 1011.9
20260506173802 7 166 3.2 9.7 0.00 0.00 0.00 52 1011.8
20260506173302 7 163 6.4 12.9 0.00 0.00 0.00 51 1011.8
20260506172802 7 162 4.8 11.3 0.00 0.00 0.00 49 1011.8
20260506172306 7 176 4.8 9.7 0.00 0.00 0.00 49 1011.8
20260506171802 7 164 8.0 14.5 0.00 0.00 0.00 48 1011.8
20260506171302 7 168 4.8 9.7 0.00 0.00 0.00 48 1011.8
20260506170802 7 168 8.0 11.3 0.00 0.00 0.00 48 1011.8
20260506170302 7 178 3.2 8.0 0.00 0.00 0.00 47 1011.8
20260506165305 7 200 8.0 16.1 0.00 0.00 0.00 46 1011.8
20260506164302 8 170 8.0 14.5 0.00 0.00 0.00 45 1011.8
20260506163802 8 168 6.4 16.1 0.00 0.00 0.00 45 1011.8
20260506163301 8 183 4.8 12.9 0.00 0.00 0.00 44 1011.8
20260506162802 8 155 4.8 12.9 0.00 0.00 0.00 42 1011.8
20260506162306 8 150 9.7 16.1 0.00 0.00 0.00 40 1011.8
20260506161802 8 161 4.8 11.3 0.00 0.00 0.00 44 1011.8
20260506161303 8 173 4.8 12.9 0.00 0.00 0.00 45 1011.8
20260506160802 8 160 3.2 14.5 0.00 0.00 0.00 44 1011.8
20260506155802 8 170 8.0 16.1 0.00 0.00 0.00 42 1011.7
20260506155305 8 180 4.8 9.7 0.00 0.00 0.00 41 1011.7
20260506154802 8 187 4.8 14.5 0.00 0.00 0.00 41 1011.7
20260506153802 8 166 6.4 19.3 0.00 0.00 0.00 40 1011.7
20260506153302 8 178 4.8 12.9 0.00 0.00 0.00 41 1011.8
20260506152802 9 189 8.0 14.5 0.00 0.00 0.00 38 1011.8
20260506152305 9 174 4.8 4.8 0.00 0.00 0.00 41 1011.8
20260506151803 10 175 4.8 16.1 0.00 0.00 0.00 41 1011.8
20260506151302 9 185 6.4 14.5 0.00 0.00 0.00 41 1011.8
20260506150802 9 138 4.8 19.3 0.00 0.00 0.00 38 1011.8
20260506150304 10 185 3.2 14.5 0.00 0.00 0.00 38 1011.8
20260506145802 9 167 3.2 9.7 0.00 0.00 0.00 39 1011.8
20260506145305 9 188 3.2 9.7 0.00 0.00 0.00 40 1011.8
20260506144802 8 157 4.8 14.5 0.00 0.00 0.00 39 1011.8
20260506144302 9 176 6.4 16.1 0.00 0.00 0.00 39 1011.8
20260506143802 9 182 1.6 9.7 0.00 0.00 0.00 38 1011.8
20260506143302 9 171 3.2 11.3 0.00 0.00 0.00 38 1011.8
20260506142802 9 138 4.8 19.3 0.00 0.00 0.00 38 1011.8
20260506141802 10 180 3.2 16.1 0.00 0.00 0.00 38 1011.8
20260506141302 10 171 4.8 16.1 0.00 0.00 0.00 37 1011.8
20260506140802 10 176 3.2 19.3 0.00 0.00 0.00 36 1011.8
20260506140302 10 146 3.2 12.9 0.00 0.00 0.00 34 1011.8
20260506135802 10 159 6.4 19.3 0.00 0.00 0.00 34 1011.8
20260506134802 10 166 4.8 19.3 0.00 0.00 0.00 37 1011.7
20260506134302 10 167 6.4 19.3 0.00 0.00 0.00 35 1011.7
20260506133803 10 173 8.0 19.3 0.00 0.00 0.00 37 1011.7
20260506133302 11 180 3.2 4.8 0.00 0.00 0.00 37 1011.8